COSMOS 1275 DEB, 42181

Orbit data source: Space-Track

COSMOS 1275 DEB, 42181 is space debris in LEO originally from a launch on Thu, 04 Jun 1981 UTC launched from the Plesetsk Missile And Space Complex (PKMTR). Debris objects in space refer to the collection of defunct objects orbiting the Earth. Examples of debris include non-operational satellites, rocket bodies, and fragments generated from explosions, collisions, or faulty payload assembly.

Loading next visibility...
Identifier
42181, 1981-053SV
Orbit
LEO
Country
Flag of CISCIS
Related business
Manufacturer
Unknown
Mission
Spacecraft
Bus & Motor
Unknown
Mass
Unknown
Launch date (UTC)
1981-06-04 (45 years ago)
Launch vehicle
Unknown
Launch site
Plesetsk Missile And Space Complex (PKMTR)
Object type
Payload
Rocket body
Debris
Shape & HBR
Unknown shape, 0.1 m
Radar Cross Section
Medium (>0.1 m² and <1 m²)

Expand to show TLE details & history
Last TLE update: 3 days ago

TLE from 3 days ago
0 COSMOS 1275 DEB
1 42181U 81053SV  26170.44959642  .00000648  00000-0  46487-3 0  9992
2 42181  82.9019  69.3182 0073373  95.0650 265.8897 13.94318148 79254
Epoch: 2026-06-19T10:47Z
TLE epoch observation values (Epoch: 2026-06-19T10:47:25.130Z)
Latitude
-0.00004°
Longitude
-0.21492°
Altitude
920.689 km
Speed
7.389 km/s
True Right ascension
04h 37m 16s
True Declination
0° 00' 00"
Sunlit
Object was in daylight at epoch
Visualization orbit readout
Latitude
Unknown
Longitude
Unknown
Altitude
Unknown
Speed
Unknown
Apparent Right ascension
Unknown
Apparent Declination
Unknown
Sunlit
N/A
Visualization observer readout
Local Sidereal Time
14:37:25
Azimuth
Unknown
Elevation
Unknown
Doppler factor
Unknown
Orbital elements
Apogee altitude
964.141 km
Perigee altitude
857.181 km
Semi-major axis
7,288.798 km
Eccentricity
0.00734
Inclination
82.9019°
RAAN
69.3182°
Arg. of periapsis
95.065°
True anomaly
265.05165°
Mean anomaly
265.8897°
Eccentric anomaly
265.47062°
Mean motion
3.48786 °/min
Orbital period
103.22 mins
BSTAR
0.00046487
Loading maneuver chart data...
Computing Atmospheric mass density...
Loading historical data...
Loading historical data...
Loading historical data...
Loading historical data...
Loading historical data...
Loading historical data...
Loading historical data...

Documentation

Showing up to 5 results
|